Cincinnati, OH

9:43 PM EST on November 16, 2019 (GMT -0500)
Cincinnati Municipal-Lunken

Weather History for KLUK - October, 2019

Change the Weather History Date:

Wednesday, October 23, 2019

  Actual Average Record
Temperature  
Mean Temperature 52 °F -  
Max Temperature 66 °F 65 °F 83 °F (1963)
Min Temperature 39 °F 42 °F 28 °F (1976)
Degree Days  
Heating Degree Days 12    
Growing Degree Days 2 (Base 50)    
Moisture  
Dew Point 35 °F    
Average Humidity 56    
Maximum Humidity 86    
Minimum Humidity 29    
Precipitation  
Precipitation 0.00 in - - ()
Sea Level Pressure  
Sea Level Pressure 30.11 in    
Wind  
Wind Speed 7 mph ()    
Max Wind Speed 18 mph    
Max Gust Speed -    
Visibility 10.0 miles    
Events      
Averages and records for this station are not official NWS values.
T = Trace of Precipitation, MM = Missing Value Source: Averaged Metar Reports

Daily Weather History Graph

Daily Weather History Graph

Search for Another Location

Airport or City:

Astronomy

Oct. 23, 2019 Rise Set
Actual Time 7:55 AM EDT 6:48 PM EDT
Civil Twilight 7:28 AM EDT 7:15 PM EDT
Nautical Twilight 6:56 AM EDT 7:46 PM EDT
Astronomical Twilight 6:25 AM EDT 8:17 PM EDT
Moon 2:16 AM EDT (10/23) 4:35 PM EDT (10/23)
Length of Visible Light 11h 47m
Length of Day
10h 52m
Waning Crescent, 27% of the Moon is Illuminated
Oct 23
Waning Crescent
Oct 27
New
Nov 4
First Quarter
Nov 12
Full
Nov 19
Last Quarter

Hourly Weather History & Observations

Time (EDT) Temp. Windchill Dew Point Humidity Pressure Visibility Wind Dir Wind Speed Gust Speed Precip Events Conditions
12:53 AM 46.9 °F - 39.0 °F 74% 29.97 in 10.0 mi SSW 8.1 mph - N/A   Clear
1:53 AM 48.9 °F - 39.0 °F 69% 29.99 in 10.0 mi SW 9.2 mph - N/A   Clear
2:53 AM 48.9 °F - 37.9 °F 66% 30.00 in 10.0 mi SW 9.2 mph - N/A   Clear
3:53 AM 46.9 °F - 37.0 °F 68% 30.01 in 10.0 mi SW 9.2 mph - N/A   Clear
4:53 AM 45.0 °F 41.8 °F 36.0 °F 71% 30.04 in 10.0 mi WSW 5.8 mph - N/A   Clear
5:53 AM 43.0 °F 39.5 °F 35.1 °F 74% 30.06 in 10.0 mi SSW 5.8 mph - N/A   Clear
6:53 AM 41.0 °F 36.4 °F 34.0 °F 76% 30.08 in 10.0 mi SW 6.9 mph - N/A   Clear
7:53 AM 39.9 °F 37.8 °F 36.0 °F 86% 30.09 in 10.0 mi ESE 3.5 mph - N/A   Clear
8:53 AM 43.0 °F - 37.0 °F 80% 30.12 in 10.0 mi Calm Calm - N/A   Clear
9:53 AM 48.9 °F - 36.0 °F 61% 30.14 in 10.0 mi SW 9.2 mph - N/A   Clear
10:53 AM 54.0 °F - 35.1 °F 49% 30.16 in 10.0 mi WSW 8.1 mph - N/A   Clear
11:53 AM 57.9 °F - 33.1 °F 39% 30.16 in 10.0 mi SSW 12.7 mph - N/A   Clear
12:53 PM 61.0 °F - 33.1 °F 35% 30.16 in 10.0 mi SSW 10.4 mph - N/A   Clear
1:53 PM 63.0 °F - 33.1 °F 33% 30.14 in 10.0 mi SSW 15.0 mph - N/A   Clear
2:53 PM 64.0 °F - 33.1 °F 31% 30.13 in 10.0 mi South 18.4 mph - N/A   Clear
3:53 PM 66.0 °F - 33.1 °F 29% 30.11 in 10.0 mi SSW 9.2 mph - N/A   Clear
4:53 PM 64.0 °F - 33.1 °F 31% 30.11 in 10.0 mi SSW 10.4 mph - N/A   Clear
5:53 PM 62.1 °F - 35.1 °F 37% 30.11 in 10.0 mi SSW 9.2 mph - N/A   Clear
6:53 PM 55.9 °F - 36.0 °F 47% 30.13 in 10.0 mi South 4.6 mph - N/A   Clear
7:53 PM 52.0 °F - 35.1 °F 53% 30.15 in 10.0 mi SSW 5.8 mph - N/A   Clear
8:53 PM 50.0 °F - 36.0 °F 59% 30.17 in 10.0 mi SSW 5.8 mph - N/A   Clear
9:53 PM 48.9 °F - 35.1 °F 59% 30.17 in 10.0 mi SSW 6.9 mph - N/A   Clear
10:53 PM 48.9 °F - 36.0 °F 61% 30.17 in 10.0 mi South 9.2 mph - N/A   Clear
11:53 PM 51.1 °F - 36.0 °F 56% 30.16 in 10.0 mi South 6.9 mph - N/A   Clear